This demonstration page uses our WeatherBlox Daily Observations layout. Learn more.

Left ArrowRight Arrow

34.02893, -84.19858

Hourly Observations for February 4, 2020

Temp ( °F °C ) Dew Point ( °F °C ) Humidity (%) Winds ( mph kmh ) Pressure ( in mb ) Visibility ( mi km ) Precip ( " mm )
12:53 am 00:53 Clear 57 13.9 42 5.6 58 58 SSW 8 13 30.02 1017 10 16 0.00 0.00
1:53 am 01:53 Clear 57 13.9 43 6.1 60 60 SW 9 15 30.03 1017 10 16 0.00 0.00
2:53 am 02:53 Clear 57 13.9 46 7.8 67 67 WSW 8 13 30.03 1017 10 16 0.00 0.00
3:53 am 03:53 Clear 56 13.3 47 8.3 72 72 SW 9 15 30.04 1017 10 16 0.00 0.00
4:35 am 04:35 Mostly Cloudy 56 13.3 48 8.9 75 75 WSW 9 15 30.07 1018 10 16 0.00 0.00
4:53 am 04:53 Cloudy 56 13.3 48 8.9 75 75 SW 8 13 30.04 1017 10 16 0.00 0.00
5:13 am 05:13 Partly Cloudy 55 12.8 48 8.9 77 77 SW 8 13 30.07 1018 10 16 0.00 0.00
5:53 am 05:53 Partly Cloudy 55 12.8 49 9.4 80 80 SW 6 9 30.05 1018 10 16 0.00 0.00
6:53 am 06:53 Mostly Cloudy 54 12.2 50 10 87 87 SW 6 9 30.04 1017 10 16 0.00 0.00
7:53 am 07:53 Cloudy 55 12.8 51 10.6 87 87 SW 10 17 30.06 1018 10 16 0.00 0.00
8:00 am 08:00 Cloudy 56 13.3 51 10.6 84 84 SW 10 17 30.07 1018 10 16 0.00 0.00
8:53 am 08:53 Cloudy 57 13.9 52 11.1 83 83 WSW 6 9 30.07 1018 10 16 0.00 0.00
9:53 am 09:53 Cloudy 59 15 53 11.7 81 81 SW 12 19 30.06 1018 10 16 0.00 0.00
10:53 am 10:53 Cloudy 58 14.4 54 12.2 87 87 SW 8 13 30.06 1018 10 16 0.00 0.00
11:00 am 11:00 Cloudy 58 14.4 54 12.2 87 87 SW 8 13 30.07 1018 10 16 0.00 0.00
11:31 am 11:31 Cloudy 58 14.4 55 12.8 90 90 SW 9 15 30.06 1018 10 16 0.00 0.00
11:53 am 11:53 Cloudy 58 14.4 55 12.8 90 90 WSW 10 17 30.07 1018 10 16 0.00 0.00
12:01 pm 12:01 Cloudy 58 14.4 55 12.8 90 90 SW 8 13 30.06 1018 10 16 0.00 0.00
12:53 pm 12:53 Cloudy 60 15.6 55 12.8 84 84 WSW 9 15 30.03 1017 10 16 0.00 0.00
1:53 pm 13:53 Cloudy 62 16.7 55 12.8 78 78 SW 10 17 29.99 1016 10 16 0.00 0.00
1:58 pm 13:58 Mostly Cloudy 62 16.7 55 12.8 78 78 SW 9 15 30.00 1016 10 16 0.00 0.00
2:53 pm 14:53 Sunny 65 18.3 55 12.8 70 70 SSW 7 11 29.96 1014 10 16 0.00 0.00
3:53 pm 15:53 Partly Cloudy 66 18.9 54 12.2 65 65 S 9 15 29.94 1014 10 16 0.00 0.00
4:53 pm 16:53 Mostly Cloudy 65 18.3 54 12.2 68 68 SSW 7 11 29.96 1015 10 16 0.00 0.00
5:53 pm 17:53 Cloudy with Light Rain 64 17.8 55 12.8 73 73 S 3 6 29.96 1015 10 16 0.00 0.00
6:53 pm 18:53 Clear 60 15.6 55 12.8 84 84 SSW 3 6 29.98 1015 10 16 0.00 0.00
7:53 pm 19:53 Partly Cloudy 61 16.1 55 12.8 81 81 Calm 29.98 1015 10 16 0.00 0.00
8:53 pm 20:53 Partly Cloudy 61 16.1 55 12.8 81 81 S 5 7 29.98 1015 10 16 0.00 0.00
9:53 pm 21:53 Cloudy 61 16.1 55 12.8 81 81 S 5 7 29.97 1015 10 16 0.00 0.00
10:53 pm 22:53 Cloudy 61 16.1 55 12.8 81 81 S 5 7 29.97 1015 10 16 0.00 0.00
11:53 pm 23:53 Cloudy 62 16.7 56 13.3 80 80 S 9 15 29.96 1014 10 16 0.00 0.00

Powered by AerisWeather